Погода в Оздере

Турция     38°00′54″N   27°07′43″E
темп.,
°C
ветер,
м/с
пор.,
м/с
влажн.,
%
обл.,
%
осадки,
мм/ч
давл.,
гПа
погр.,
м
11 апреля, вс
вс1100:00+3ссв34644 0.0 102477
03:00+2ссв33695 0.0 102370
06:00+1ссв33660 0.0 102357
09:00+6ссв36500 0.0 1023442
12:00+12ссв57300 0.0 10231170
15:00+14с56290 0.0 10211521
18:00+13ссв46350 0.0 10211541
21:00+7ссв33620 0.0 102252
12 апреля, пн
пн1200:00+5ссв33730 0.0 102351
03:00+4ссв33750 0.0 102364
06:00+3ссв23770 0.0 102352
09:00+8ссв34574 0.0 1023322
12:00+14ссв34430 0.0 10221060
15:00+17ссз23410 0.0 10201275
18:00+17св23450 0.0 10191197
21:00+11ссв22670 0.0 102130
13 апреля, вт
вт1300:00+9ссв22740 0.0 102036
03:00+8св22781 0.0 102026
06:00+7св22811 0.0 102030
09:00+12всв21613 0.0 1020221
12:00+18ююз114611 0.0 1019862
15:00+17юз3346100 0.0 1018658
18:00+16юз23585 0.0 1017432
21:00+11ююз117678 0.0 101815
14 апреля, ср
ср1400:00+11ююв227737 0.0 101832
03:00+10юв2286100 0.0 101733
06:00+10в118759 0.0 101630
09:00+14юв23685 0.0 1016321
12:00+18ююз59525 0.0 10151121
15:00+19ююз913510 0.0 10141275
18:00+17ююз914620 0.0 10141383
21:00+14ю6127410 0.0 1015972
15 апреля, чт
чт1500:00+13ю378186 0.0 1015556
03:00+10вюв2289100 0.0 101539
06:00+11в228164 0.0 101592
09:00+14вюв237024 0.0 1016324
12:00+18ю35581 0.0 10161300
15:00+18юз45575 0.0 10161168
18:00+17зюз456610 0.0 1015715
21:00+13з1187100 0.0 101619